,,Stat6,,Stat2,,Stat8,,Stat9,,Stat10,,Wind1,,Wind1,
time,status,PA1M_AVG,status,PR1M_SUM,status,RH1M_AVG,status,SR1M_AVG,status,TA1M_AVG,status,W1dAve1m,status,W1sAve1m,
2005-07-04, 00:00:01,VALID,919.486,VALID,0,VALID,99.5272,VALID,0,VALID,19.8997,VALID,31,VALID,1.13601,
2005-07-04, 00:01:01,VALID,919.467,VALID,0,VALID,99.5056,VALID,0,VALID,19.89,VALID,21,VALID,0.891135,
2005-07-04, 00:02:01,VALID,919.467,VALID,0,VALID,99.3632,VALID,0,VALID,19.8577,VALID,10,VALID,0.71005,
2005-07-04, 00:03:01,VALID,919.459,VALID,0,VALID,99.3746,VALID,-0.0169808,VALID,19.848,VALID,341,VALID,0.855283,
2005-07-04, 00:04:00,VALID,919.463,VALID,0,VALID,99.2627,VALID,0,VALID,19.8185,VALID,315,VALID,0.253348,
2005-07-04, 00:05:01,VALID,919.462,VALID,0,VALID,99.3288,VALID,0,VALID,19.8028,VALID,4,VALID,0.0490057,
2005-07-04, 00:06:00,VALID,919.451,VALID,0,VALID,99.4585,VALID,0.0169808,VALID,19.806,VALID,22,VALID,0.4504,
2005-07-04, 00:07:00,VALID,919.459,VALID,0,VALID,99.573,VALID,0,VALID,19.8185,VALID,22,VALID,0.307478,
2005-07-04, 00:08:01,VALID,919.456,VALID,0,VALID,99.5501,VALID,0,VALID,19.8321,VALID,22,VALID,0.804688,
2005-07-04, 00:09:00,VALID,919.458,VALID,0,VALID,99.5501,VALID,0,VALID,19.8319,VALID,16,VALID,0.728871,
2005-07-04, 00:10:01,VALID,919.447,VALID,0,VALID,99.5768,VALID,0,VALID,19.8319,VALID,21,VALID,0.846637,
2005-07-04, 00:11:01,VALID,919.42,VALID,0,VALID,99.5437,VALID,0,VALID,19.8254,VALID,25,VALID,1.08394,
2005-07-04, 00:12:01,VALID,919.417,VALID,0,VALID,99.5056,VALID,0.0169808,VALID,19.8324,VALID,23,VALID,1.11934,
2005-07-04, 00:13:01,VALID,919.398,VALID,0,VALID,99.3975,VALID,0.0339617,VALID,19.8023,VALID,22,VALID,0.933398,
2005-07-04, 00:14:01,VALID,919.393,VALID,0,VALID,99.3657,VALID,0,VALID,19.7956,VALID,21,VALID,0.984896,
2005-07-04, 00:15:01,VALID,919.377,VALID,0,VALID,99.3746,VALID,0.0169808,VALID,19.7899,VALID,21,VALID,1.25164,
2005-07-04, 00:16:01,VALID,919.362,VALID,0,VALID,99.3683,VALID,0,VALID,19.7735,VALID,18,VALID,0.889695,
2005-07-04, 00:17:00,VALID,919.352,VALID,0,VALID,99.3352,VALID,-0.0169808,VALID,19.7839,VALID,11,VALID,0.484012,
2005-07-04, 00:18:01,VALID,919.347,VALID,0,VALID,99.2411,VALID,0,VALID,19.7705,VALID,13,VALID,0.942951,
2005-07-04, 00:19:01,VALID,919.32,VALID,0,VALID,99.1089,VALID,0.0169808,VALID,19.7474,VALID,19,VALID,1.40678,
2005-07-04, 00:20:01,VALID,919.328,VALID,0,VALID,99.1661,VALID,0,VALID,19.7318,VALID,19,VALID,1.26953,
2005-07-04, 00:21:01,VALID,919.325,VALID,0,VALID,99.2042,VALID,0,VALID,19.7151,VALID,354,VALID,0.855283,
2005-07-04, 00:22:00,VALID,919.31,VALID,0,VALID,99.2958,VALID,0,VALID,19.7057,VALID,350,VALID,0.610054,
2005-07-04, 00:23:01,VALID,919.292,VALID,0,VALID,99.3746,VALID,0,VALID,19.7025,VALID,353,VALID,1.27065,
2005-07-04, 00:24:01,VALID,919.278,VALID,0,VALID,99.2894,VALID,0,VALID,19.6702,VALID,343,VALID,1.18413,
2005-07-04, 00:25:00,VALID,919.255,VALID,0,VALID,99.4446,VALID,0.0169808,VALID,19.6608,VALID,13,VALID,0.772461,
2005-07-04, 00:26:01,VALID,919.226,VALID,0,VALID,99.6289,VALID,0,VALID,19.6766,VALID,17,VALID,0.459794,
2005-07-04, 00:27:00,VALID,919.202,VALID,0,VALID,99.7129,VALID,-0.0509425,VALID,19.6814,VALID,16,VALID,0.667874,
2005-07-04, 00:28:01,VALID,919.173,VALID,0,VALID,99.765,VALID,-0.0849042,VALID,19.6878,VALID,25,VALID,0.786086,
2005-07-04, 00:29:01,VALID,919.159,VALID,0,VALID,99.5298,VALID,-0.101885,VALID,19.6719,VALID,356,VALID,1.20241,
2005-07-04, 00:30:01,VALID,919.13,VALID,0,VALID,99.5921,VALID,-0.101885,VALID,19.6553,VALID,358,VALID,1.55487,
2005-07-04, 00:31:01,VALID,919.127,VALID,0,VALID,99.4585,VALID,-0.0849042,VALID,19.6295,VALID,327,VALID,0.74782,
2005-07-04, 00:32:01,VALID,919.103,VALID,0,VALID,99.615,VALID,-0.101885,VALID,19.6362,VALID,17,VALID,0.491477,
2005-07-04, 00:33:01,VALID,919.086,VALID,0,VALID,99.7434,VALID,-0.101885,VALID,19.6558,VALID,9,VALID,0.620384,
2005-07-04, 00:34:01,VALID,919.068,VALID,0,VALID,99.7726,VALID,-0.101885,VALID,19.6719,VALID,10,VALID,0.474564,
2005-07-04, 00:35:01,VALID,919.051,VALID,0,VALID,99.7841,VALID,-0.0849042,VALID,19.6751,VALID,10,VALID,0.0499637,
2005-07-04, 00:36:01,VALID,919.021,VALID,0,VALID,99.8133,VALID,-0.101885,VALID,19.691,VALID,12,VALID,0.569141,
2005-07-04, 00:37:01,VALID,918.996,VALID,0,VALID,99.8426,VALID,-0.101885,VALID,19.7139,VALID,13,VALID,0.400521,
2005-07-04, 00:38:01,VALID,918.966,VALID,0,VALID,99.6874,VALID,-0.101885,VALID,19.7045,VALID,8,VALID,0.338778,
2005-07-04, 00:39:01,VALID,918.946,VALID,0,VALID,99.5476,VALID,-0.101885,VALID,19.6881,VALID,7,VALID,0.201791,
2005-07-04, 00:40:01,VALID,918.945,VALID,0,VALID,99.5323,VALID,-0.101885,VALID,19.6982,VALID,7,VALID,0.165179,
2005-07-04, 00:41:01,VALID,918.924,VALID,0,VALID,99.5399,VALID,-0.101885,VALID,19.7007,VALID,7,VALID,0.338844,
2005-07-04, 00:42:01,VALID,918.908,VALID,0,VALID,99.4522,VALID,-0.0169808,VALID,19.6997,VALID,16,VALID,0.745808,
2005-07-04, 00:43:01,VALID,918.883,VALID,0,VALID,99.4649,VALID,0,VALID,19.6958,VALID,23,VALID,0.890447,
2005-07-04, 00:44:01,VALID,918.874,VALID,0,VALID,99.4547,VALID,0,VALID,19.703,VALID,2,VALID,1.40309,
2005-07-04, 00:45:01,VALID,918.854,VALID,0,VALID,99.3238,VALID,0,VALID,19.6704,VALID,15,VALID,1.30645,
2005-07-04, 00:46:00,VALID,918.852,VALID,0,VALID,99.4573,VALID,0,VALID,19.6734,VALID,9,VALID,0.61843,
2005-07-04, 00:47:00,VALID,918.858,VALID,0,VALID,99.4611,VALID,0.0339617,VALID,19.6737,VALID,358,VALID,1.27716,
2005-07-04, 00:48:00,VALID,918.868,VALID,0,VALID,99.4204,VALID,0,VALID,19.6607,VALID,12,VALID,0.997456,
2005-07-04, 00:49:00,VALID,918.864,VALID,0,VALID,99.4128,VALID,0,VALID,19.6444,VALID,1,VALID,0.786328,
2005-07-04, 00:50:00,VALID,918.858,VALID,0,VALID,99.4471,VALID,0,VALID,19.6352,VALID,4,VALID,0.785937,
2005-07-04, 00:51:00,VALID,918.869,VALID,0,VALID,99.5921,VALID,0,VALID,19.6481,VALID,10,VALID,1.06658,
2005-07-04, 00:52:00,VALID,918.874,VALID,0,VALID,99.6468,VALID,0,VALID,19.6349,VALID,6,VALID,0.600419,
2005-07-04, 00:53:00,VALID,918.898,VALID,0,VALID,99.6646,VALID,-0.0169808,VALID,19.619,VALID,289,VALID,0.462326,
2005-07-04, 00:54:00,VALID,918.9,VALID,0,VALID,99.7408,VALID,0,VALID,19.6193,VALID,238,VALID,0.0114329,
2005-07-04, 00:55:00,VALID,918.904,VALID,0,VALID,99.8108,VALID,0,VALID,19.6123,VALID,238,VALID,0.000887784,
2005-07-04, 00:56:00,VALID,918.879,VALID,0,VALID,99.8667,VALID,0,VALID,19.6252,VALID,124,VALID,0.494673,
2005-07-04, 00:57:00,VALID,918.888,VALID,0,VALID,99.9903,VALID,-0.0169808,VALID,19.6411,VALID,27,VALID,0.816229,
2005-07-04, 00:58:00,VALID,918.896,VALID,0,VALID,100,VALID,0,VALID,19.6834,VALID,21,VALID,0.891016,
2005-07-04, 00:59:00,VALID,918.899,VALID,0,VALID,100,VALID,0,VALID,19.706,VALID,23,VALID,0.521129,
2005-07-04, 01:00:00,VALID,918.907,VALID,0,VALID,100,VALID,0,VALID,19.7286,VALID,16,VALID,0.570499,
2005-07-04, 01:01:00,VALID,918.924,VALID,0,VALID,100,VALID,0.0339617,VALID,19.7027,VALID,16,VALID,0.237995,
2005-07-04, 01:02:00,VALID,918.936,VALID,0,VALID,100,VALID,0,VALID,19.6769,VALID,16,VALID,0.186198,
2005-07-04, 01:03:00,VALID,918.931,VALID,0,VALID,100,VALID,0,VALID,19.6868,VALID,16,VALID,0.0619549,
2005-07-04, 01:04:00,VALID,918.942,VALID,0,VALID,100,VALID,0.0169808,VALID,19.6801,VALID,16,VALID,0.0737424,
2005-07-04, 01:05:00,VALID,918.938,VALID,0,VALID,100,VALID,0.0169808,VALID,19.6896,VALID,16,VALID,0.000545058,
2005-07-04, 01:06:00,VALID,918.925,VALID,0,VALID,100,VALID,0,VALID,19.6968,VALID,16,VALID,0.170508,
2005-07-04, 01:07:00,VALID,918.914,VALID,0,VALID,100,VALID,-0.0169808,VALID,19.7062,VALID,16,VALID,0.42081,
2005-07-04, 01:08:00,VALID,918.917,VALID,0,VALID,100,VALID,-0.0169808,VALID,19.7094,VALID,16,VALID,0.623757,
2005-07-04, 01:09:00,VALID,918.918,VALID,0,VALID,99.9751,VALID,0,VALID,19.6995,VALID,10,VALID,0.580171,
2005-07-04, 01:10:00,VALID,918.92,VALID,0,VALID,99.8197,VALID,-0.0169808,VALID,19.6672,VALID,356,VALID,0.450994,
2005-07-04, 01:11:00,VALID,918.9,VALID,0,VALID,99.6925,VALID,0.0339617,VALID,19.6379,VALID,356,VALID,0.0230655,
2005-07-04, 01:12:00,VALID,918.896,VALID,0,VALID,99.6862,VALID,-0.0169808,VALID,19.6223,VALID,356,VALID,0.00381541,
2005-07-04, 01:13:00,VALID,918.879,VALID,0,VALID,99.7205,VALID,0,VALID,19.6225,VALID,356,VALID,0.261719,
2005-07-04, 01:14:00,VALID,918.865,VALID,0,VALID,99.601,VALID,0,VALID,19.6093,VALID,337,VALID,0.720703,
2005-07-04, 01:15:00,VALID,918.856,VALID,0,VALID,99.7358,VALID,-0.0339617,VALID,19.6093,VALID,22,VALID,0.926897,
2005-07-04, 01:16:00,VALID,918.858,VALID,0,VALID,99.7587,VALID,-0.0169808,VALID,19.6026,VALID,8,VALID,0.82867,
2005-07-04, 01:17:00,VALID,918.842,VALID,0,VALID,99.648,VALID,-0.0169808,VALID,19.5964,VALID,16,VALID,0.950076,
2005-07-04, 01:18:00,VALID,918.833,VALID,0,VALID,99.545,VALID,-0.0169808,VALID,19.5967,VALID,19,VALID,0.88722,
2005-07-04, 01:19:00,VALID,918.835,VALID,0,VALID,99.4865,VALID,-0.0679233,VALID,19.6163,VALID,15,VALID,0.9016,
2005-07-04, 01:20:00,VALID,918.836,VALID,0,VALID,99.4191,VALID,-0.0339617,VALID,19.6091,VALID,4,VALID,0.917188,
2005-07-04, 01:21:00,VALID,918.813,VALID,0,VALID,99.3797,VALID,0,VALID,19.6155,VALID,12,VALID,1.06094,
2005-07-04, 01:22:00,VALID,918.789,VALID,0,VALID,99.3416,VALID,-0.0169808,VALID,19.6091,VALID,22,VALID,0.855469,
2005-07-04, 01:23:00,VALID,918.776,VALID,0,VALID,99.222,VALID,0,VALID,19.6059,VALID,11,VALID,0.956352,
2005-07-04, 01:24:00,VALID,918.754,VALID,0,VALID,99.1864,VALID,-0.0169808,VALID,19.6026,VALID,11,VALID,0.827363,
2005-07-04, 01:25:00,VALID,918.721,VALID,0,VALID,99.1699,VALID,-0.0169808,VALID,19.5766,VALID,10,VALID,0.394436,
2005-07-04, 01:26:00,VALID,918.692,VALID,0,VALID,99.1979,VALID,-0.0169808,VALID,19.5773,VALID,9,VALID,0.549782,
2005-07-04, 01:27:00,VALID,918.685,VALID,0,VALID,99.1521,VALID,-0.0849042,VALID,19.5624,VALID,11,VALID,0.659446,
2005-07-04, 01:28:00,VALID,918.671,VALID,0,VALID,99.1826,VALID,-0.101885,VALID,19.5592,VALID,10,VALID,0.615282,
2005-07-04, 01:29:00,VALID,918.648,VALID,0,VALID,99.119,VALID,-0.118866,VALID,19.5234,VALID,358,VALID,0.435902,
2005-07-04, 01:30:00,VALID,918.608,VALID,0,VALID,99.1966,VALID,-0.135847,VALID,19.5373,VALID,15,VALID,0.87066,
2005-07-04, 01:31:00,VALID,918.584,VALID,0,VALID,99.1063,VALID,-0.101885,VALID,19.5403,VALID,358,VALID,1.17225,
2005-07-04, 01:32:00,VALID,918.547,VALID,0,VALID,99.0605,VALID,-0.101885,VALID,19.5271,VALID,356,VALID,0.67951,
2005-07-04, 01:33:00,VALID,918.512,VALID,0,VALID,99.0707,VALID,-0.135847,VALID,19.5306,VALID,353,VALID,0.43968,
2005-07-04, 01:34:00,VALID,918.489,VALID,0,VALID,99.1076,VALID,-0.135847,VALID,19.5043,VALID,336,VALID,0.413517,
2005-07-04, 01:35:00,VALID,918.442,VALID,0,VALID,99.0809,VALID,-0.118866,VALID,19.4911,VALID,4,VALID,1.55639,
2005-07-04, 01:36:00,VALID,918.409,VALID,0,VALID,98.9919,VALID,-0.118866,VALID,19.4951,VALID,14,VALID,1.37184,
2005-07-04, 01:37:00,VALID,918.386,VALID,0,VALID,98.9664,VALID,-0.101885,VALID,19.5172,VALID,19,VALID,1.56195,
2005-07-04, 01:38:00,VALID,918.372,VALID,0,VALID,98.9804,VALID,-0.118866,VALID,19.511,VALID,9,VALID,1.29605,
2005-07-04, 01:39:00,VALID,918.348,VALID,0,VALID,98.997,VALID,-0.118866,VALID,19.5085,VALID,17,VALID,1.27782,
2005-07-04, 01:40:00,VALID,918.335,VALID,0,VALID,99.0237,VALID,-0.101885,VALID,19.4822,VALID,7,VALID,1.5806,
2005-07-04, 01:41:00,VALID,918.308,VALID,0,VALID,99.1292,VALID,-0.135847,VALID,19.4596,VALID,349,VALID,1.19124,
2005-07-04, 01:42:00,VALID,918.286,VALID,0,VALID,99.1699,VALID,-0.0339617,VALID,19.4288,VALID,328,VALID,1.08754,
2005-07-04, 01:43:00,VALID,918.255,VALID,0,VALID,99.2157,VALID,-0.0339617,VALID,19.4323,VALID,331,VALID,0.776042,
2005-07-04, 01:44:00,VALID,918.236,VALID,0,VALID,99.2386,VALID,0,VALID,19.4156,VALID,305,VALID,0.631925,
2005-07-04, 01:45:00,VALID,918.196,VALID,0,VALID,99.2208,VALID,-0.0339617,VALID,19.4298,VALID,305,VALID,0.462028,
2005-07-04, 01:46:00,VALID,918.164,VALID,0,VALID,99.208,VALID,0,VALID,19.4131,VALID,356,VALID,0.787246,
2005-07-04, 01:47:00,VALID,918.128,VALID,0,VALID,99.2564,VALID,-0.0169808,VALID,19.4005,VALID,4,VALID,0.440739,
2005-07-04, 01:48:00,VALID,918.105,VALID,0,VALID,99.278,VALID,-0.0339617,VALID,19.3804,VALID,4,VALID,0.165396,
2005-07-04, 01:49:00,VALID,918.093,VALID,0,VALID,99.2971,VALID,-0.0169808,VALID,19.3838,VALID,4,VALID,0.0667783,
2005-07-04, 01:50:00,VALID,918.099,VALID,0,VALID,99.3479,VALID,0,VALID,19.3645,VALID,4,VALID,0.0196221,
2005-07-04, 01:51:00,VALID,918.102,VALID,0,VALID,99.4217,VALID,-0.0339617,VALID,19.3587,VALID,4,VALID,0.0907738,
2005-07-04, 01:52:00,VALID,918.123,VALID,0,VALID,99.4598,VALID,-0.0339617,VALID,19.3458,VALID,352,VALID,0.360795,
2005-07-04, 01:53:00,VALID,918.136,VALID,0,VALID,99.5946,VALID,0,VALID,19.3287,VALID,264,VALID,0.568229,
2005-07-04, 01:54:00,VALID,918.14,VALID,0,VALID,99.7714,VALID,-0.0169808,VALID,19.3257,VALID,248,VALID,0.219993,
2005-07-04, 01:55:00,VALID,918.114,VALID,0,VALID,99.8477,VALID,-0.0509425,VALID,19.3195,VALID,321,VALID,0.536754,
2005-07-04, 01:56:00,VALID,918.115,VALID,0,VALID,99.8795,VALID,-0.0169808,VALID,19.3163,VALID,37,VALID,0.560971,
2005-07-04, 01:57:00,VALID,918.13,VALID,0,VALID,99.7269,VALID,-0.0339617,VALID,19.3076,VALID,14,VALID,0.604567,
2005-07-04, 01:58:00,VALID,918.127,VALID,0,VALID,99.7192,VALID,-0.101885,VALID,19.2792,VALID,354,VALID,0.818537,
2005-07-04, 01:59:00,VALID,918.139,VALID,0,VALID,99.8222,VALID,-0.101885,VALID,19.2467,VALID,353,VALID,0.691501,
2005-07-04, 02:00:00,VALID,918.15,VALID,0,VALID,99.9341,VALID,-0.101885,VALID,19.2338,VALID,353,VALID,0.633878,
2005-07-04, 02:01:00,VALID,918.171,VALID,0,VALID,99.8667,VALID,-0.0849042,VALID,19.2112,VALID,13,VALID,0.990489,
2005-07-04, 02:02:00,VALID,918.174,VALID,0,VALID,99.8769,VALID,-0.0679233,VALID,19.2017,VALID,27,VALID,1.21662,
2005-07-04, 02:03:00,VALID,918.194,VALID,0,VALID,99.8375,VALID,-0.101885,VALID,19.2239,VALID,27,VALID,0.884301,
2005-07-04, 02:04:00,VALID,918.198,VALID,0,VALID,99.7625,VALID,-0.101885,VALID,19.2432,VALID,34,VALID,0.598586,
2005-07-04, 02:05:00,VALID,918.19,VALID,0,VALID,99.6836,VALID,-0.0849042,VALID,19.2661,VALID,33,VALID,0.168155,
2005-07-04, 02:06:00,VALID,918.165,VALID,0,VALID,99.6404,VALID,-0.0849042,VALID,19.2825,VALID,33,VALID,0,
2005-07-04, 02:07:00,VALID,918.16,VALID,0,VALID,99.5959,VALID,-0.0679233,VALID,19.2986,VALID,33,VALID,0.0302734,
2005-07-04, 02:08:00,VALID,918.151,VALID,0,VALID,99.5018,VALID,-0.101885,VALID,19.2946,VALID,33,VALID,0.0538651,
2005-07-04, 02:09:00,VALID,918.133,VALID,0,VALID,99.4001,VALID,-0.101885,VALID,19.3113,VALID,33,VALID,0,
2005-07-04, 02:10:00,VALID,918.128,VALID,0,VALID,99.3352,VALID,-0.118866,VALID,19.3046,VALID,32,VALID,0.210938,
2005-07-04, 02:11:00,VALID,918.096,VALID,0,VALID,99.2271,VALID,-0.101885,VALID,19.3205,VALID,19,VALID,0.468387,
2005-07-04, 02:12:00,VALID,918.093,VALID,0,VALID,99.0669,VALID,-0.0509425,VALID,19.3634,VALID,2,VALID,0.407813,
2005-07-04, 02:13:00,VALID,918.08,VALID,0,VALID,98.9245,VALID,-0.0849042,VALID,19.3952,VALID,1,VALID,0.393415,
2005-07-04, 02:14:00,VALID,918.08,VALID,0,VALID,98.7439,VALID,-0.0849042,VALID,19.4181,VALID,1,VALID,0.301736,
2005-07-04, 02:15:00,VALID,918.074,VALID,0,VALID,98.5773,VALID,-0.0509425,VALID,19.4337,VALID,1,VALID,0.25601,
2005-07-04, 02:16:00,VALID,918.065,VALID,0,VALID,98.5099,VALID,-0.0849042,VALID,19.4434,VALID,1,VALID,0.443677,
2005-07-04, 02:17:00,VALID,918.068,VALID,0,VALID,98.3968,VALID,-0.101885,VALID,19.4531,VALID,1,VALID,0.126116,
2005-07-04, 02:18:00,VALID,918.072,VALID,0,VALID,98.295,VALID,-0.101885,VALID,19.4722,VALID,1,VALID,0.737233,
2005-07-04, 02:19:00,VALID,918.072,VALID,0,VALID,98.2632,VALID,-0.0679233,VALID,19.5115,VALID,360,VALID,0.780342,
2005-07-04, 02:20:00,VALID,918.07,VALID,0,VALID,98.206,VALID,-0.0849042,VALID,19.5244,VALID,21,VALID,0.940225,
2005-07-04, 02:21:00,VALID,918.066,VALID,0,VALID,98.0204,VALID,-0.101885,VALID,19.5142,VALID,2,VALID,1.2247,
2005-07-04, 02:22:00,VALID,918.084,VALID,0,VALID,97.883,VALID,-0.0679233,VALID,19.537,VALID,5,VALID,1.48496,
2005-07-04, 02:23:00,VALID,918.113,VALID,0,VALID,97.7915,VALID,-0.0509425,VALID,19.5435,VALID,323,VALID,0.526972,
2005-07-04, 02:24:00,VALID,918.091,VALID,0,VALID,97.6173,VALID,-0.101885,VALID,19.5338,VALID,332,VALID,0.930043,
2005-07-04, 02:25:00,VALID,918.075,VALID,0,VALID,97.63,VALID,-0.101885,VALID,19.5666,VALID,355,VALID,0.705305,
2005-07-04, 02:26:00,VALID,918.091,VALID,0,VALID,97.6643,VALID,-0.101885,VALID,19.5693,VALID,4,VALID,0.810454,
2005-07-04, 02:27:00,VALID,918.07,VALID,0,VALID,97.5702,VALID,-0.0169808,VALID,19.5587,VALID,317,VALID,0.56359,
2005-07-04, 02:28:00,VALID,918.061,VALID,0,VALID,97.5372,VALID,0,VALID,19.5651,VALID,332,VALID,0.408975,
2005-07-04, 02:29:00,VALID,918.057,VALID,0,VALID,97.5194,VALID,0.0169808,VALID,19.5679,VALID,332,VALID,0.0388849,
2005-07-04, 02:30:00,VALID,918.031,VALID,0,VALID,97.513,VALID,0,VALID,19.5842,VALID,327,VALID,0.165551,
2005-07-04, 02:31:00,VALID,918.024,VALID,0,VALID,97.3172,VALID,0.0169808,VALID,19.5934,VALID,302,VALID,0.429878,
2005-07-04, 02:32:00,VALID,918.01,VALID,0,VALID,97.3871,VALID,0.0169808,VALID,19.5999,VALID,302,VALID,0.189904,
2005-07-04, 02:33:00,VALID,917.977,VALID,0,VALID,97.6033,VALID,0.0339617,VALID,19.6163,VALID,322,VALID,0.134629,
2005-07-04, 02:34:00,VALID,917.945,VALID,0,VALID,97.6961,VALID,0.0679233,VALID,19.616,VALID,23,VALID,1.29173,
2005-07-04, 02:35:00,VALID,917.974,VALID,0,VALID,97.7419,VALID,0.0509425,VALID,19.616,VALID,344,VALID,0.889648,
2005-07-04, 02:36:00,VALID,917.989,VALID,0,VALID,97.6249,VALID,0,VALID,19.6096,VALID,194,VALID,0.646577,
2005-07-04, 02:37:00,VALID,917.991,VALID,0,VALID,97.5766,VALID,0.0169808,VALID,19.6034,VALID,193,VALID,0.212936,
2005-07-04, 02:38:00,VALID,917.966,VALID,0,VALID,97.7037,VALID,0.0339617,VALID,19.6168,VALID,187,VALID,0.544457,
2005-07-04, 02:39:00,VALID,917.966,VALID,0,VALID,97.9492,VALID,0,VALID,19.6098,VALID,185,VALID,0.260356,
2005-07-04, 02:40:00,VALID,917.961,VALID,0,VALID,98.0903,VALID,0.0339617,VALID,19.6026,VALID,185,VALID,0.00410156,
2005-07-04, 02:41:00,VALID,917.955,VALID,0,VALID,98.1984,VALID,0.0169808,VALID,19.6031,VALID,185,VALID,0.00109012,
2005-07-04, 02:42:00,VALID,917.94,VALID,0,VALID,98.3408,VALID,0.0169808,VALID,19.5969,VALID,108,VALID,0.352805,
2005-07-04, 02:43:00,VALID,917.942,VALID,0,VALID,98.4998,VALID,0.0169808,VALID,19.5934,VALID,29,VALID,0.203697,
2005-07-04, 02:44:00,VALID,917.959,VALID,0,VALID,98.5964,VALID,0,VALID,19.6034,VALID,29,VALID,0.742014,
2005-07-04, 02:45:00,VALID,917.963,VALID,0,VALID,98.7134,VALID,0.0509425,VALID,19.5771,VALID,28,VALID,0.632031,
2005-07-04, 02:46:00,VALID,917.97,VALID,0,VALID,98.8634,VALID,0.0169808,VALID,19.5711,VALID,26,VALID,1.08108,
2005-07-04, 02:47:00,VALID,917.966,VALID,0,VALID,98.8139,VALID,0.0169808,VALID,19.5619,VALID,20,VALID,0.800391,
2005-07-04, 02:48:00,VALID,917.962,VALID,0,VALID,98.543,VALID,0,VALID,19.5261,VALID,7,VALID,1.52229,
2005-07-04, 02:49:00,VALID,917.964,VALID,0,VALID,98.2251,VALID,0,VALID,19.5132,VALID,355,VALID,1.00744,
2005-07-04, 02:50:00,VALID,917.939,VALID,0,VALID,98.1895,VALID,0.0169808,VALID,19.51,VALID,360,VALID,1.20898,
2005-07-04, 02:51:00,VALID,917.911,VALID,0,VALID,98.0216,VALID,0.0169808,VALID,19.503,VALID,6,VALID,1.04669,
2005-07-04, 02:52:00,VALID,917.889,VALID,0,VALID,98.0051,VALID,0.0339617,VALID,19.513,VALID,358,VALID,0.645833,
2005-07-04, 02:53:00,VALID,917.881,VALID,0,VALID,98.0776,VALID,0.0339617,VALID,19.4963,VALID,357,VALID,0.764583,
2005-07-04, 02:54:00,VALID,917.879,VALID,0,VALID,98.1412,VALID,0,VALID,19.5068,VALID,353,VALID,0.077567,
2005-07-04, 02:55:00,VALID,917.871,VALID,0,VALID,98.3027,VALID,0.0169808,VALID,19.4996,VALID,353,VALID,0,
2005-07-04, 02:56:00,VALID,917.855,VALID,0,VALID,98.2785,VALID,0,VALID,19.5095,VALID,356,VALID,0.247456,
2005-07-04, 02:57:00,VALID,917.852,VALID,0,VALID,98.1704,VALID,0,VALID,19.507,VALID,2,VALID,0.824396,
2005-07-04, 02:58:00,VALID,917.86,VALID,0,VALID,98.3548,VALID,0,VALID,19.5199,VALID,6,VALID,0.705903,
2005-07-04, 02:59:00,VALID,917.875,VALID,0,VALID,98.4591,VALID,-0.0169808,VALID,19.5231,VALID,8,VALID,0.774164,
2005-07-04, 03:00:00,VALID,917.893,VALID,0,VALID,98.4896,VALID,-0.0169808,VALID,19.5102,VALID,6,VALID,0.674782,
2005-07-04, 03:01:00,VALID,917.9,VALID,0,VALID,98.3573,VALID,-0.0169808,VALID,19.4966,VALID,3,VALID,0.894531,
2005-07-04, 03:02:00,VALID,917.901,VALID,0,VALID,98.3701,VALID,-0.0169808,VALID,19.5035,VALID,3,VALID,1.11124,
2005-07-04, 03:03:00,VALID,917.912,VALID,0,VALID,98.1297,VALID,-0.0339617,VALID,19.4971,VALID,2,VALID,1.20948,
2005-07-04, 03:04:00,VALID,917.926,VALID,0,VALID,98.0293,VALID,0,VALID,19.4934,VALID,357,VALID,1.23018,
2005-07-04, 03:05:00,VALID,917.922,VALID,0,VALID,97.9326,VALID,-0.0169808,VALID,19.5073,VALID,5,VALID,1.27674,
2005-07-04, 03:06:00,VALID,917.911,VALID,0,VALID,98.0878,VALID,-0.0169808,VALID,19.507,VALID,20,VALID,1.2702,
2005-07-04, 03:07:00,VALID,917.909,VALID,0,VALID,97.9695,VALID,-0.0339617,VALID,19.5005,VALID,329,VALID,1.26438,
2005-07-04, 03:08:00,VALID,917.908,VALID,0,VALID,97.8182,VALID,-0.0339617,VALID,19.4814,VALID,330,VALID,1.00625,
2005-07-04, 03:09:00,VALID,917.886,VALID,0,VALID,97.8487,VALID,-0.0339617,VALID,19.4874,VALID,357,VALID,1.05621,
2005-07-04, 03:10:00,VALID,917.873,VALID,0,VALID,97.9987,VALID,0,VALID,19.4876,VALID,356,VALID,0.991235,
2005-07-04, 03:11:00,VALID,917.858,VALID,0,VALID,97.9733,VALID,-0.0339617,VALID,19.4844,VALID,346,VALID,0.495028,
2005-07-04, 03:12:00,VALID,917.84,VALID,0,VALID,98.0064,VALID,-0.0339617,VALID,19.4842,VALID,350,VALID,0.601563,
2005-07-04, 03:13:00,VALID,917.822,VALID,0,VALID,98.0598,VALID,0,VALID,19.4812,VALID,354,VALID,0.384896,
2005-07-04, 03:14:00,VALID,917.808,VALID,0,VALID,98.1323,VALID,-0.0509425,VALID,19.4911,VALID,17,VALID,0.576349,
2005-07-04, 03:15:00,VALID,917.792,VALID,0,VALID,98.2098,VALID,0,VALID,19.4904,VALID,18,VALID,0.380903,
2005-07-04, 03:16:00,VALID,917.804,VALID,0,VALID,98.2264,VALID,-0.0509425,VALID,19.4968,VALID,18,VALID,0.0882457,
2005-07-04, 03:17:00,VALID,917.794,VALID,0,VALID,98.1501,VALID,-0.0169808,VALID,19.51,VALID,18,VALID,0.096875,
2005-07-04, 03:18:00,VALID,917.769,VALID,0,VALID,98.0038,VALID,-0.0339617,VALID,19.4904,VALID,18,VALID,0.00228659,
2005-07-04, 03:19:00,VALID,917.785,VALID,0,VALID,97.9428,VALID,-0.0169808,VALID,19.5035,VALID,18,VALID,0.079723,
2005-07-04, 03:20:00,VALID,917.768,VALID,0,VALID,98.1577,VALID,-0.0339617,VALID,19.543,VALID,18,VALID,0.205208,
2005-07-04, 03:21:00,VALID,917.752,VALID,0,VALID,98.0789,VALID,-0.0169808,VALID,19.5557,VALID,18,VALID,0.0701308,
2005-07-04, 03:22:00,VALID,917.758,VALID,0,VALID,97.9085,VALID,-0.0339617,VALID,19.539,VALID,19,VALID,0.810501,
2005-07-04, 03:23:00,VALID,917.766,VALID,0,VALID,97.663,VALID,0,VALID,19.5547,VALID,342,VALID,0.650868,
2005-07-04, 03:24:00,VALID,917.787,VALID,0,VALID,97.382,VALID,-0.0169808,VALID,19.5649,VALID,355,VALID,0.517987,
2005-07-04, 03:25:00,VALID,917.784,VALID,0,VALID,97.4647,VALID,-0.0169808,VALID,19.5607,VALID,8,VALID,0.608232,
2005-07-04, 03:26:00,VALID,917.79,VALID,0,VALID,97.5702,VALID,-0.0339617,VALID,19.5974,VALID,23,VALID,0.790278,
2005-07-04, 03:27:00,VALID,917.781,VALID,0,VALID,97.6427,VALID,0,VALID,19.5907,VALID,37,VALID,0.821243,
2005-07-04, 03:28:00,VALID,917.759,VALID,0,VALID,97.7533,VALID,-0.0339617,VALID,19.6006,VALID,37,VALID,0.880814,
2005-07-04, 03:29:00,VALID,917.73,VALID,0,VALID,97.869,VALID,-0.0679233,VALID,19.6006,VALID,36,VALID,0.744004,
2005-07-04, 03:30:00,VALID,917.717,VALID,0,VALID,98.0407,VALID,0,VALID,19.5877,VALID,28,VALID,0.914063,
2005-07-04, 03:31:00,VALID,917.701,VALID,0,VALID,97.9809,VALID,-0.0509425,VALID,19.5554,VALID,19,VALID,0.808308,
2005-07-04, 03:32:00,VALID,917.687,VALID,0,VALID,98.0115,VALID,-0.0169808,VALID,19.5264,VALID,12,VALID,0.840199,
2005-07-04, 03:33:00,VALID,917.678,VALID,0,VALID,98.2925,VALID,-0.0509425,VALID,19.5005,VALID,23,VALID,0.718387,
2005-07-04, 03:34:00,VALID,917.676,VALID,0,VALID,98.3408,VALID,-0.0509425,VALID,19.4745,VALID,47,VALID,0.883194,